Weather History for Litchfield, MN

Change the Weather History Date:

Wednesday, June 20, 2012

  Actual Average Record
Temperature  
Mean Temperature 70 °F -  
Max Temperature 80 °F 79 °F 100 °F (1988)
Min Temperature 60 °F 56 °F 38 °F (1969)
Cooling Degree Days 5    
Growing Degree Days 20 (Base 50)    
Moisture  
Dew Point 65 °F    
Average Humidity 86    
Maximum Humidity 100    
Minimum Humidity 69    
Precipitation  
Precipitation 0.00 in - - ()
Sea Level Pressure  
Sea Level Pressure 29.76 in    
Wind  
Wind Speed 7 mph (West)    
Max Wind Speed 25 mph    
Max Gust Speed 36 mph    
Visibility 10 miles    
Events Rain , Thunderstorm    
Averages and records for this station are not official NWS values.
T = Trace of Precipitation, MM = Missing Value Source: NWS Daily Summary

Daily Weather History Graph

Daily Weather History Graph

Search for Another Location

Airport:

Trip Planner

Search our weather history database for the weather conditions in past years. The results will help you decide how hot, cold, wet, or windy it might be!

Date:

Astronomy

Jun. 20, 2012 Rise Set
Actual Time 5:30 AM CDT 9:08 PM CDT
Civil Twilight 4:53 AM CDT 9:46 PM CDT
Nautical Twilight 4:03 AM CDT 10:36 PM CDT
Astronomical Twilight 2:56 AM CDT 11:42 PM CDT
Moon 6:34 AM CDT (6/20) 9:50 PM CDT (6/20)
Length of Visible Light 16h 53m
Length of Day
15h 37m
New Moon, 1% of the Moon is Illuminated
Jun 20
New Moon
Jun 26
First Quarter
Jul 3
Full
Jul 10
Last Quarter
Jul 18
New

Hourly Weather History & Observations

Time (CDT) Temp. Heat Index Dew Point Humidity Pressure Visibility Wind Dir Wind Speed Gust Speed Precip Events Conditions
12:13 AM 80.6 °F 83.9 °F 69.8 °F 70% 29.62 in 10.0 mi South 6.9 mph 17.3 mph N/A   Overcast
12:32 AM 80.6 °F 83.9 °F 69.8 °F 70% 29.62 in 10.0 mi South 6.9 mph 17.3 mph N/A   Mostly Cloudy
12:53 AM 80.6 °F 83.9 °F 69.8 °F 70% 29.61 in 10.0 mi SSW 9.2 mph 18.4 mph N/A   Scattered Clouds
1:13 AM 78.8 °F - 69.8 °F 74% 29.62 in 10.0 mi SSW 8.1 mph - N/A   Clear
1:32 AM 78.8 °F - 69.8 °F 74% 29.62 in 10.0 mi SSW 4.6 mph - N/A   Clear
1:53 AM 78.8 °F - 69.8 °F 74% 29.63 in 10.0 mi SSW 5.8 mph - N/A   Mostly Cloudy
2:12 AM 78.8 °F - 69.8 °F 74% 29.64 in 10.0 mi SSW 3.5 mph - N/A   Mostly Cloudy
2:33 AM 78.8 °F - 69.8 °F 74% 29.64 in 10.0 mi SSW 4.6 mph - N/A   Mostly Cloudy
2:53 AM 77.0 °F - 69.8 °F 78% 29.65 in 10.0 mi SW 5.8 mph - N/A   Scattered Clouds
3:12 AM 75.2 °F - 68.0 °F 78% 29.64 in 10.0 mi Calm Calm - N/A   Scattered Clouds
3:33 AM 75.2 °F - 68.0 °F 78% 29.64 in 10.0 mi Calm Calm - N/A   Scattered Clouds
3:53 AM 75.2 °F - 68.0 °F 78% 29.64 in 10.0 mi South 3.5 mph - N/A   Scattered Clouds
4:12 AM 75.2 °F - 68.0 °F 78% 29.64 in 10.0 mi SSE 4.6 mph - N/A   Scattered Clouds
4:33 AM 75.2 °F - 69.8 °F 83% 29.64 in 10.0 mi SSE 4.6 mph - N/A   Mostly Cloudy
4:53 AM 75.2 °F - 69.8 °F 83% 29.64 in 10.0 mi South 4.6 mph - N/A   Mostly Cloudy
5:13 AM 75.2 °F - 69.8 °F 83% 29.64 in 10.0 mi South 6.9 mph - N/A   Mostly Cloudy
5:33 AM 75.2 °F - 69.8 °F 83% 29.65 in 10.0 mi SSW 10.4 mph 16.1 mph N/A   Overcast
5:53 AM 71.6 °F - 68.0 °F 88% 29.67 in 10.0 mi WNW 8.1 mph 17.3 mph N/A   Overcast
6:12 AM 69.8 °F - 66.2 °F 88% 29.67 in 10.0 mi West 4.6 mph - N/A   Overcast
6:33 AM 69.8 °F - 66.2 °F 88% 29.66 in 10.0 mi Calm Calm - N/A   Overcast
6:53 AM 69.8 °F - 66.2 °F 88% 29.67 in 10.0 mi Calm Calm - N/A   Overcast
7:12 AM 71.6 °F - 66.2 °F 83% 29.68 in 10.0 mi Calm Calm - N/A   Overcast
7:33 AM 71.6 °F - 66.2 °F 83% 29.67 in 10.0 mi SE 3.5 mph - N/A   Overcast
7:53 AM 71.6 °F - 66.2 °F 83% 29.71 in 5.0 mi West 12.7 mph 19.6 mph N/A Rain Heavy Rain
8:13 AM 66.2 °F - 66.2 °F 100% 29.73 in 10.0 mi WNW 13.8 mph 20.7 mph N/A Rain Rain
8:33 AM 66.2 °F - 64.4 °F 94% 29.74 in 3.0 mi NW 13.8 mph 21.9 mph N/A   Drizzle
8:53 AM 66.2 °F - 64.4 °F 94% 29.85 in 1.2 mi West 25.3 mph 35.7 mph N/A Rain , Thunderstorm Heavy Thunderstorms and Rain
9:13 AM 64.4 °F - 62.6 °F 94% 29.69 in 7.0 mi North 19.6 mph 33.4 mph N/A Rain , Thunderstorm Light Thunderstorms and Rain
9:33 AM 64.4 °F - 62.6 °F 94% 29.68 in 10.0 mi North 13.8 mph 18.4 mph N/A   Light Drizzle
9:53 AM 64.4 °F - 64.4 °F 100% 29.73 in 10.0 mi WNW 13.8 mph 20.7 mph N/A   Mostly Cloudy
10:13 AM 66.2 °F - 64.4 °F 94% 29.75 in 10.0 mi WNW 9.2 mph 19.6 mph N/A   Mostly Cloudy
10:33 AM 69.8 °F - 64.4 °F 83% 29.76 in 10.0 mi NNW 13.8 mph 19.6 mph N/A   Mostly Cloudy
10:53 AM 68.0 °F - 62.6 °F 83% 29.77 in 10.0 mi NNW 10.4 mph - N/A   Mostly Cloudy
11:13 AM 68.0 °F - 62.6 °F 83% 29.76 in 10.0 mi North 11.5 mph - N/A   Overcast
11:33 AM 69.8 °F - 62.6 °F 78% 29.76 in 10.0 mi NNE 6.9 mph - N/A   Mostly Cloudy
11:53 AM 71.6 °F - 68.0 °F 88% 29.76 in 10.0 mi NNE 8.1 mph - N/A   Scattered Clouds
12:13 PM 75.2 °F - 73.4 °F 94% 29.76 in 10.0 mi NE 5.8 mph - N/A   Clear
12:32 PM 73.4 °F - 71.6 °F 94% 29.76 in 10.0 mi East 6.9 mph - N/A   Clear
12:53 PM 73.4 °F - 73.4 °F 100% 29.76 in 10.0 mi East 6.9 mph - N/A   Clear
1:13 PM 75.2 °F - 73.4 °F 94% 29.76 in 10.0 mi ESE 6.9 mph - N/A   Clear
1:32 PM 75.2 °F - 73.4 °F 94% 29.78 in 10.0 mi Calm Calm - N/A   Clear
1:53 PM 75.2 °F - 64.4 °F 69% 29.80 in 10.0 mi West 6.9 mph - N/A   Mostly Cloudy
2:13 PM 75.2 °F - 64.4 °F 69% 29.80 in 10.0 mi WNW 9.2 mph - N/A   Mostly Cloudy
2:32 PM 73.4 °F - 64.4 °F 73% 29.80 in 10.0 mi WNW 12.7 mph 17.3 mph N/A   Mostly Cloudy
2:53 PM 71.6 °F - 64.4 °F 78% 29.81 in 10.0 mi WNW 13.8 mph - N/A   Overcast
3:13 PM 69.8 °F - 64.4 °F 83% 29.80 in 10.0 mi WNW 10.4 mph 18.4 mph N/A Rain Light Rain
3:32 PM 69.8 °F - 64.4 °F 83% 29.82 in 10.0 mi NW 11.5 mph 21.9 mph N/A   Scattered Clouds
3:53 PM 68.0 °F - 64.4 °F 88% 29.83 in 10.0 mi WNW 12.7 mph 17.3 mph N/A Rain Light Rain
4:13 PM 68.0 °F - 64.4 °F 88% 29.81 in 10.0 mi NW 15.0 mph - N/A Rain Light Rain
4:32 PM 68.0 °F - 62.6 °F 83% 29.84 in 10.0 mi WNW 17.3 mph 24.2 mph N/A   Clear
4:53 PM 68.0 °F - 62.6 °F 83% 29.79 in 10.0 mi NW 11.5 mph 19.6 mph N/A Rain Light Rain
5:13 PM 68.0 °F - 62.6 °F 83% 29.82 in 10.0 mi WNW 11.5 mph 18.4 mph N/A   Clear
5:33 PM 66.2 °F - 62.6 °F 88% 29.82 in 10.0 mi WNW 10.4 mph - N/A   Clear
5:53 PM 66.2 °F - 62.6 °F 88% 29.82 in 10.0 mi NW 8.1 mph - N/A Rain Light Rain
6:13 PM 64.4 °F - 62.6 °F 94% 29.84 in 10.0 mi WNW 8.1 mph - N/A Rain Light Rain
6:32 PM 64.4 °F - 62.6 °F 94% 29.82 in 10.0 mi WNW 6.9 mph - N/A Rain Rain
6:53 PM 64.4 °F - 62.6 °F 94% 29.82 in 10.0 mi Calm Calm - N/A   Light Drizzle
7:13 PM 64.4 °F - 62.6 °F 94% 29.83 in 10.0 mi NW 4.6 mph - N/A Rain Light Rain
7:33 PM 64.4 °F - 62.6 °F 94% 29.85 in 10.0 mi Calm Calm - N/A   Scattered Clouds
7:53 PM 64.4 °F - 62.6 °F 94% 29.85 in 10.0 mi WSW 3.5 mph - N/A   Clear
8:13 PM 64.4 °F - 62.6 °F 94% 29.85 in 10.0 mi Calm Calm - N/A   Clear
8:33 PM 64.4 °F - 62.6 °F 94% 29.85 in 10.0 mi WSW 3.5 mph - N/A   Clear
8:52 PM 64.4 °F - 62.6 °F 94% 29.85 in 10.0 mi Calm Calm - N/A   Clear
9:13 PM 62.6 °F - 60.8 °F 94% 29.86 in 10.0 mi Calm Calm - N/A   Clear
9:33 PM 60.8 °F - 59.0 °F 94% 29.88 in 10.0 mi Calm Calm - N/A   Clear
9:52 PM 60.8 °F - 60.8 °F 100% 29.88 in 10.0 mi SSW 3.5 mph - N/A   Clear
10:13 PM 60.8 °F - 59.0 °F 94% 29.89 in 10.0 mi SW 3.5 mph - N/A   Clear
10:33 PM 60.8 °F - 59.0 °F 94% 29.88 in 10.0 mi Calm Calm - N/A   Clear
10:52 PM 60.8 °F - 59.0 °F 94% 29.89 in 10.0 mi Calm Calm - N/A   Clear
11:13 PM 60.8 °F - 59.0 °F 94% 29.90 in 10.0 mi SW 3.5 mph - N/A   Clear
11:33 PM 60.8 °F - 59.0 °F 94% 29.90 in 10.0 mi SSW 4.6 mph - N/A   Scattered Clouds
11:52 PM 60.8 °F - 59.0 °F 94% 29.90 in 10.0 mi Calm Calm - N/A   Clear